FW7184 Weather Reports


Display with metric or nautical units.
time (UTC)temp
F
wind
direction
speed
MPH
gust
MPH
rain 1hr
in
rain 24hr
in
rain mn
in
humidity
%
barometer
mb
20260507135600 54 57 0.0 1.0 0.00 0.13 0.13 67 1011.2
20260507135057 53 111 0.0 1.0 0.00 0.13 0.13 65 1011.2
20260507134553 53 32 2.0 3.0 0.00 0.13 0.13 67 1011.0
20260507134049 53 70 4.0 5.0 0.00 0.13 0.13 72 1011.3
20260507133546 53 75 0.0 0.0 0.00 0.13 0.13 75 1011.1
20260507133044 53 90 0.0 0.0 0.00 0.13 0.13 78 1011.3
20260507132540 52 35 1.0 1.0 0.00 0.13 0.13 81 1011.2
20260507132036 51 15 3.0 3.0 0.00 0.13 0.13 83 1011.1
20260507131533 51 103 0.0 0.0 0.00 0.13 0.13 84 1010.9
20260507131031 51 109 1.0 1.0 0.00 0.13 0.13 87 1011.0
20260507130527 51 118 0.0 0.0 0.00 0.13 0.13 86 1011.3
20260507130026 51 100 0.0 1.0 0.00 0.13 0.13 85 1011.1
20260507125524 51 95 1.0 1.0 0.00 0.13 0.13 85 1011.0
20260507125021 51 352 3.0 5.0 0.00 0.13 0.13 85 1011.1
20260507124517 51 105 0.0 0.0 0.00 0.13 0.13 86 1011.1
20260507124016 51 92 1.0 1.0 0.00 0.13 0.13 87 1011.0
20260507123513 50 167 1.0 1.0 0.00 0.13 0.13 89 1011.1
20260507123010 50 112 0.0 0.0 0.00 0.13 0.13 90 1011.0
20260507122504 50 65 1.0 1.0 0.00 0.13 0.13 90 1010.8
20260507122001 50 117 0.0 0.0 0.00 0.13 0.13 91 1011.1
20260507121456 49 115 0.0 0.0 0.00 0.13 0.13 91 1010.9
20260507120953 49 34 0.0 1.0 0.00 0.13 0.13 92 1011.0
20260507120449 49 96 2.0 2.0 0.00 0.13 0.13 92 1010.9
20260507115946 48 16 3.0 5.0 0.00 0.13 0.13 93 1010.9
20260507115442 48 51 2.0 2.0 0.00 0.13 0.13 94 1011.0
20260507114938 48 110 0.0 0.0 0.00 0.13 0.13 94 1010.9
20260507114434 48 106 1.0 1.0 0.00 0.13 0.13 95 1010.9
20260507113932 48 114 0.0 0.0 0.00 0.13 0.13 96 1011.1
20260507113429 48 89 0.0 0.0 0.00 0.13 0.13 96 1010.7
20260507112926 48 115 0.0 0.0 0.00 0.13 0.13 96 1010.9
20260507112424 47 112 1.0 1.0 0.00 0.13 0.13 96 1010.6
20260507111921 48 116 0.0 0.0 0.00 0.13 0.13 96 1010.9
20260507111418 48 119 0.0 0.0 0.00 0.13 0.13 96 1010.5
20260507110914 47 115 0.0 0.0 0.00 0.13 0.13 96 1010.7
20260507110410 48 120 0.0 0.0 0.00 0.13 0.13 97 1010.4
20260507105907 48 121 0.0 0.0 0.00 0.13 0.13 97 1010.5
20260507105358 48 122 0.0 1.0 0.00 0.13 0.13 97 1010.5
20260507104855 48 118 0.0 0.0 0.00 0.13 0.13 97 1010.2
20260507104351 48 120 0.0 0.0 0.00 0.13 0.13 97 1010.3
20260507103847 47 120 0.0 0.0 0.00 0.13 0.13 97 1010.3
20260507103344 47 119 0.0 0.0 0.00 0.13 0.13 97 1009.9
20260507102840 47 117 0.0 0.0 0.00 0.13 0.13 97 1009.7
20260507102337 47 117 0.0 0.0 0.00 0.13 0.13 98 1009.7
20260507101833 47 117 0.0 0.0 0.00 0.13 0.13 98 1009.7
20260507101333 47 29 1.0 2.0 0.00 0.13 0.13 98 1009.6
20260507100831 47 116 0.0 0.0 0.00 0.13 0.13 98 1009.5
20260507100329 47 121 0.0 0.0 0.00 0.13 0.13 98 1009.6
20260507095827 47 120 0.0 0.0 0.00 0.13 0.13 98 1009.5
20260507095323 47 124 0.0 0.0 0.00 0.13 0.13 99 1009.7
20260507094820 48 121 0.0 0.0 0.00 0.13 0.13 99 1009.8
20260507094317 47 111 0.0 0.0 0.00 0.13 0.13 99 1009.6
20260507093814 47 33 0.0 0.0 0.00 0.13 0.13 99 1009.4
20260507093312 47 99 1.0 1.0 0.00 0.13 0.13 99 1009.5
20260507092810 47 118 0.0 1.0 0.00 0.13 0.13 99 1009.6
20260507092307 48 110 0.0 0.0 0.00 0.13 0.13 99 1009.6
20260507091803 48 95 0.0 0.0 0.00 0.13 0.13 99 1009.3
20260507091259 48 119 0.0 0.0 0.00 0.13 0.13 99 1009.5
20260507090759 48 121 0.0 0.0 0.00 0.13 0.13 99 1009.6
20260507090256 48 94 0.0 0.0 0.00 0.13 0.13 99 1009.5
20260507085753 48 121 0.0 0.0 0.00 0.13 0.13 99 1009.4
20260507085250 48 117 0.0 0.0 0.00 0.13 0.13 99 1009.6
20260507084747 48 114 0.0 1.0 0.00 0.13 0.13 99 1009.6
20260507084243 48 87 1.0 2.0 0.00 0.13 0.13 99 1009.5
20260507083741 49 121 0.0 0.0 0.00 0.13 0.13 99 1009.5
20260507083238 49 125 0.0 0.0 0.00 0.13 0.13 99 1009.6
20260507082734 49 122 0.0 0.0 0.00 0.13 0.13 99 1009.5
20260507082229 49 117 0.0 0.0 0.00 0.13 0.13 99 1009.9
20260507081727 49 127 0.0 0.0 0.00 0.13 0.13 99 1009.4
20260507081222 49 92 0.0 0.0 0.00 0.13 0.13 99 1009.2
20260507080719 49 130 0.0 0.0 0.00 0.13 0.13 99 1010.0
20260507080215 49 122 0.0 0.0 0.00 0.13 0.13 99 1009.7
20260507075711 49 101 0.0 1.0 0.00 0.13 0.13 99 1009.6
20260507075208 50 96 0.0 0.0 0.07 0.13 0.13 99 1009.8
20260507074704 50 127 0.0 0.0 0.07 0.13 0.13 99 1009.6
20260507074202 50 123 0.0 0.0 0.00 0.12 0.12 99 1009.7
20260507073658 50 120 0.0 0.0 0.00 0.12 0.12 99 1010.0
20260507073154 50 134 0.0 0.0 0.05 0.12 0.12 99 1010.1
20260507072653 50 123 0.0 0.0 0.05 0.12 0.12 99 1009.7
20260507072150 50 125 0.0 0.0 0.07 0.11 0.11 99 1009.6
20260507071648 50 124 0.0 0.0 0.12 0.11 0.11 99 1009.7
20260507071143 50 125 0.0 0.0 0.12 0.10 0.10 99 1009.4
20260507070641 50 89 0.0 0.0 0.12 0.09 0.09 98 1009.6
20260507070137 50 110 0.0 0.0 0.12 0.08 0.08 98 1009.4
20260507065634 50 112 0.0 1.0 0.07 0.07 0.07 98 1009.6
20260507065131 50 94 0.0 0.0 0.00 0.06 0.06 98 1009.5
20260507064628 50 83 0.0 0.0 0.00 0.06 0.06 98 1009.8
20260507064127 50 116 0.0 0.0 0.07 0.06 0.06 98 1009.3
20260507063624 51 60 1.0 2.0 0.12 0.06 0.06 97 1009.1
20260507063121 51 118 0.0 0.0 0.05 0.05 0.05 97 1009.5
20260507062617 51 117 0.0 0.0 0.00 0.04 0.04 96 1009.6
20260507062115 51 120 0.0 0.0 0.07 0.04 0.04 96 1009.7
20260507061613 51 120 0.0 0.0 0.12 0.04 0.04 95 1009.1
20260507061111 52 107 0.0 1.0 0.05 0.03 0.03 94 1009.2
20260507060609 52 121 0.0 0.0 0.07 0.02 0.02 93 1009.3
20260507060105 52 128 0.0 0.0 0.05 0.01 0.01 91 1009.3
20260507055600 52 123 0.0 0.0 0.00 0.00 0.00 91 1009.3
20260507055056 53 112 1.0 1.0 0.00 0.00 0.00 90 1008.6
20260507054552 53 116 0.0 0.0 0.00 0.00 0.00 90 1008.5
20260507054050 53 83 1.0 1.0 0.00 0.00 0.00 89 1008.9
20260507053548 53 117 0.0 0.0 0.00 0.00 0.00 88 1008.9
20260507053046 53 108 0.0 1.0 0.00 0.00 0.00 88 1008.7
20260507052543 54 130 0.0 0.0 0.00 0.00 0.00 87 1008.9
20260507052040 54 116 0.0 1.0 0.00 0.00 0.00 87 1008.7
20260507051538 54 32 1.0 2.0 0.00 0.00 0.00 88 1008.5
20260507051034 54 117 1.0 1.0 0.00 0.00 0.00 88 1008.9
20260507050531 54 109 0.0 1.0 0.00 0.00 0.00 88 1009.2
20260507050027 54 121 0.0 0.0 0.00 0.00 0.00 88 1009.2
20260507045524 54 118 0.0 1.0 0.00 0.00 0.00 88 1009.0
20260507045021 54 110 1.0 1.0 0.00 0.00 0.00 88 1008.9
20260507044518 55 121 0.0 0.0 0.00 0.00 0.00 87 1009.3
20260507044015 55 114 0.0 0.0 0.00 0.00 0.00 87 1009.1
20260507043511 55 90 0.0 1.0 0.00 0.00 0.00 87 1009.1
20260507043008 55 139 0.0 0.0 0.00 0.00 0.00 87 1009.1
20260507042504 55 56 1.0 1.0 0.00 0.00 0.00 87 1009.0
20260507041959 55 121 0.0 0.0 0.00 0.00 0.00 86 1009.0
20260507041457 55 138 1.0 1.0 0.00 0.00 0.00 86 1009.1
20260507040953 55 75 0.0 0.0 0.00 0.00 0.00 87 1009.2
20260507040449 55 63 1.0 1.0 0.00 0.00 0.00 87 1009.1
20260507035945 55 91 3.0 6.0 0.00 0.15 0.15 86 1009.1
20260507035442 55 185 0.0 1.0 0.00 0.15 0.15 87 1009.1
20260507034939 55 43 0.0 2.0 0.00 0.15 0.15 87 1009.3
20260507034436 56 123 0.0 1.0 0.00 0.15 0.15 87 1009.0
20260507033934 56 82 0.0 1.0 0.00 0.15 0.15 87 1008.8
20260507033431 56 121 0.0 0.0 0.00 0.15 0.15 86 1008.7
20260507032928 56 125 0.0 0.0 0.00 0.15 0.15 86 1008.9
20260507032425 56 67 1.0 1.0 0.00 0.15 0.15 85 1008.6
20260507031921 56 122 1.0 2.0 0.00 0.15 0.15 85 1008.6
20260507031418 56 111 0.0 1.0 0.00 0.15 0.15 87 1008.7
20260507030915 56 130 1.0 1.0 0.00 0.15 0.15 87 1008.7
20260507030412 57 109 0.0 1.0 0.00 0.15 0.15 87 1008.8
20260507025909 57 115 1.0 1.0 0.00 0.15 0.15 87 1008.8
20260507025406 57 108 0.0 0.0 0.00 0.15 0.15 88 1009.1
20260507024904 57 128 0.0 0.0 0.00 0.15 0.15 88 1009.1
20260507024401 57 70 1.0 2.0 0.00 0.15 0.15 87 1009.1
20260507023857 57 156 1.0 1.0 0.00 0.15 0.15 88 1009.1
20260507023354 57 109 1.0 1.0 0.00 0.15 0.15 89 1009.1
20260507022851 57 104 0.0 1.0 0.00 0.15 0.15 89 1009.1
20260507022347 57 123 0.0 1.0 0.00 0.15 0.15 89 1009.0
20260507021843 58 102 0.0 0.0 0.00 0.15 0.15 90 1009.0
20260507021339 58 118 0.0 0.0 0.00 0.15 0.15 91 1009.4
20260507020837 58 114 0.0 0.0 0.00 0.15 0.15 91 1009.1
20260507020333 58 125 0.0 1.0 0.00 0.15 0.15 91 1009.0
20260507015830 58 125 0.0 0.0 0.00 0.15 0.15 92 1009.0
20260507015329 58 27 0.0 1.0 0.00 0.15 0.15 92 1008.8
20260507014825 58 120 0.0 0.0 0.00 0.15 0.15 92 1008.9
20260507014321 58 129 0.0 0.0 0.00 0.15 0.15 92 1008.7
20260507013818 58 122 0.0 0.0 0.00 0.15 0.15 92 1008.8
20260507013315 58 138 2.0 3.0 0.00 0.15 0.15 94 1008.7
20260507012813 57 129 0.0 0.0 0.00 0.15 0.15 98 1008.7
20260507012308 59 124 0.0 0.0 0.07 0.15 0.15 99 1008.7
20260507011806 61 74 3.0 5.0 0.07 0.15 0.15 99 1008.6
20260507011302 61 124 0.0 0.0 0.00 0.14 0.14 99 1008.2
20260507010802 61 123 0.0 0.0 0.00 0.14 0.14 99 1008.0
20260507010258 61 126 0.0 0.0 0.00 0.14 0.14 99 1007.9
20260507005756 61 125 0.0 0.0 0.00 0.14 0.14 99 1007.8
20260507005252 61 125 0.0 0.0 0.00 0.14 0.14 99 1007.8
20260507004749 61 125 0.0 0.0 0.00 0.14 0.14 99 1007.7
20260507004246 61 123 0.0 0.0 0.00 0.14 0.14 99 1007.7
20260507003742 61 122 0.0 0.0 0.00 0.14 0.14 99 1007.6
20260507003238 61 124 0.0 0.0 0.00 0.14 0.14 99 1007.7
20260507002734 61 123 0.0 0.0 0.00 0.14 0.14 99 1007.8
20260507002230 61 124 0.0 0.0 0.00 0.14 0.14 99 1007.7
20260507001727 61 123 0.0 0.0 0.00 0.14 0.14 99 1007.7
20260507001224 61 118 0.0 0.0 0.00 0.14 0.14 99 1007.7
20260507000721 61 124 0.0 0.0 0.00 0.14 0.14 99 1007.6
20260507000216 61 147 0.0 0.0 0.00 0.14 0.14 99 1007.5
20260506235713 61 123 0.0 0.0 0.00 0.14 0.14 99 1007.5
20260506235209 61 122 0.0 0.0 0.00 0.14 0.14 99 1007.5
20260506234706 61 121 0.0 0.0 0.00 0.14 0.14 99 1007.5
20260506234203 61 125 0.0 0.0 0.00 0.14 0.14 99 1007.3
20260506233701 61 123 0.0 0.0 0.00 0.14 0.14 99 1007.2
20260506233157 61 122 0.0 0.0 0.00 0.14 0.14 99 1007.4
20260506232653 61 119 0.0 0.0 0.00 0.14 0.14 99 1007.4
20260506232148 61 125 0.0 0.0 0.00 0.14 0.14 99 1007.5
20260506231646 61 123 0.0 0.0 0.00 0.14 0.14 99 1007.4
20260506231145 61 120 0.0 0.0 0.00 0.14 0.14 99 1007.5
20260506230641 61 135 0.0 1.0 0.00 0.14 0.14 99 1007.5
20260506230138 61 118 0.0 0.0 0.00 0.14 0.14 99 1007.7
20260506225634 61 123 0.0 0.0 0.00 0.14 0.14 99 1007.4
20260506225131 61 121 0.0 0.0 0.00 0.14 0.14 99 1007.4
20260506224628 61 125 0.0 0.0 0.00 0.14 0.14 99 1007.3
20260506224124 61 111 0.0 0.0 0.00 0.14 0.14 99 1007.3
20260506223620 61 125 0.0 0.0 0.00 0.14 0.14 99 1007.1
20260506223116 61 126 0.0 0.0 0.00 0.14 0.14 99 1007.2
20260506222614 61 120 0.0 0.0 0.00 0.14 0.14 99 1007.0
20260506222110 61 127 0.0 0.0 0.00 0.14 0.14 99 1007.0
20260506221608 61 111 0.0 0.0 0.00 0.14 0.14 99 1006.9
20260506221106 61 127 0.0 0.0 0.00 0.14 0.14 99 1007.1
20260506220602 61 116 0.0 0.0 0.00 0.14 0.14 99 1006.9
20260506220057 61 117 0.0 0.0 0.00 0.14 0.14 99 1007.0
20260506215554 61 116 0.0 0.0 0.00 0.14 0.14 99 1006.9
20260506215049 61 126 0.0 0.0 0.00 0.14 0.14 99 1007.1
20260506214547 61 131 0.0 0.0 0.00 0.14 0.14 99 1006.9
20260506214044 61 149 1.0 1.0 0.00 0.14 0.14 99 1006.8
20260506213543 61 119 0.0 0.0 0.00 0.14 0.14 99 1006.9
20260506213040 61 111 0.0 0.0 0.00 0.14 0.14 99 1006.8
20260506212536 61 131 0.0 0.0 0.00 0.14 0.14 99 1006.7
20260506212030 61 128 0.0 0.0 0.00 0.14 0.14 99 1006.9
20260506211527 61 117 0.0 0.0 0.00 0.14 0.14 99 1006.6
20260506211024 61 120 0.0 0.0 0.00 0.14 0.14 99 1006.8
20260506210521 61 124 0.0 0.0 0.00 0.14 0.14 99 1006.7
20260506210017 61 106 0.0 0.0 0.00 0.14 0.14 99 1006.7
20260506205514 61 98 0.0 1.0 0.00 0.14 0.14 99 1006.6
20260506205009 61 129 0.0 0.0 0.00 0.14 0.14 99 1006.7
20260506204508 61 112 0.0 0.0 0.00 0.14 0.14 99 1006.6
20260506204004 61 98 0.0 0.0 0.00 0.14 0.14 99 1006.4
20260506203502 61 173 0.0 0.0 0.00 0.14 0.14 99 1006.5
20260506202953 61 121 0.0 1.0 0.00 0.14 0.14 99 1006.6
20260506202450 61 141 0.0 1.0 0.00 0.14 0.14 99 1006.8
20260506201945 61 119 0.0 0.0 0.00 0.14 0.14 99 1006.6
20260506201443 61 131 0.0 0.0 0.00 0.14 0.14 99 1006.8
20260506200934 61 106 0.0 0.0 0.00 0.14 0.14 99 1006.9
20260506200431 61 117 0.0 0.0 0.00 0.14 0.14 99 1007.0
20260506195927 61 110 1.0 2.0 0.05 0.14 0.14 99 1007.0
20260506195424 61 127 0.0 0.0 0.12 0.14 0.14 99 1007.2
20260506194921 61 120 0.0 0.0 0.12 0.13 0.13 99 1007.3
20260506194418 61 143 0.0 0.0 0.12 0.12 0.12 99 1007.5
20260506193915 61 135 0.0 0.0 0.12 0.11 0.11 99 1007.3
20260506193412 61 122 0.0 0.0 0.05 0.10 0.10 99 1007.4
20260506192908 62 116 0.0 0.0 0.07 0.09 0.09 99 1007.4
20260506192405 62 122 0.0 0.0 0.07 0.08 0.08 98 1007.4
20260506191902 62 125 0.0 0.0 0.05 0.07 0.07 98 1007.4
20260506191358 62 111 0.0 0.0 0.00 0.06 0.06 98 1007.6
20260506190856 62 130 0.0 0.0 0.07 0.06 0.06 97 1007.6
20260506190352 62 125 0.0 0.0 0.00 0.05 0.05 97 1007.5
20260506185849 62 115 0.0 0.0 0.00 0.05 0.05 97 1007.5
20260506185346 62 121 0.0 0.0 0.00 0.05 0.05 97 1007.5
20260506184843 62 117 0.0 0.0 0.00 0.05 0.05 96 1007.5
20260506184340 62 196 1.0 3.0 0.00 0.05 0.05 96 1007.7
20260506183837 62 111 0.0 1.0 0.00 0.05 0.05 96 1007.6
20260506183332 62 127 0.0 0.0 0.00 0.05 0.05 96 1007.9
20260506182830 62 135 0.0 0.0 0.00 0.05 0.05 97 1007.8
20260506182327 62 221 0.0 1.0 0.00 0.05 0.05 97 1007.6
20260506181825 62 127 0.0 1.0 0.00 0.05 0.05 97 1007.7
20260506181322 62 97 0.0 1.0 0.00 0.05 0.05 97 1007.8
20260506180819 62 135 0.0 1.0 0.00 0.05 0.05 97 1008.0
20260506180315 62 121 0.0 0.0 0.00 0.05 0.05 97 1008.1
20260506175812 62 133 1.0 2.0 0.00 0.05 0.05 97 1008.1
20260506175308 62 120 1.0 1.0 0.05 0.05 0.05 97 1008.0
20260506174800 62 132 0.0 1.0 0.05 0.05 0.05 97 1008.1
20260506174258 62 132 0.0 0.0 0.00 0.04 0.04 97 1008.2
20260506173755 62 118 0.0 0.0 0.07 0.04 0.04 97 1008.1
20260506173251 62 131 0.0 0.0 0.00 0.03 0.03 96 1007.9
20260506172748 61 131 0.0 0.0 0.00 0.03 0.03 96 1008.0
20260506172245 62 128 0.0 0.0 0.00 0.03 0.03 95 1008.2
20260506171743 62 120 0.0 1.0 0.00 0.03 0.03 94 1007.9
20260506171239 62 129 0.0 1.0 0.05 0.03 0.03 94 1008.1
20260506170737 62 87 0.0 1.0 0.00 0.02 0.02 93 1008.3
20260506170233 62 128 0.0 1.0 0.00 0.02 0.02 92 1008.0
20260506165732 63 131 0.0 0.0 0.00 0.02 0.02 92 1008.1
20260506165228 63 134 0.0 0.0 0.07 0.02 0.02 90 1008.2
20260506164720 64 135 0.0 0.0 0.07 0.02 0.02 89 1008.2
20260506164217 64 133 0.0 0.0 0.05 0.01 0.01 88 1008.5
20260506163714 65 128 0.0 0.0 0.00 0.00 0.00 86 1008.6
20260506163208 65 115 0.0 0.0 0.00 0.00 0.00 83 1008.8
20260506162705 65 124 0.0 0.0 0.00 0.00 0.00 83 1008.9
20260506162202 65 119 0.0 0.0 0.00 0.00 0.00 81 1009.1
20260506161659 66 125 0.0 0.0 0.00 0.00 0.00 81 1009.3
20260506161156 66 114 0.0 0.0 0.00 0.00 0.00 81 1009.0
20260506160654 66 164 1.0 1.0 0.00 0.00 0.00 80 1009.3
20260506160151 66 106 0.0 0.0 0.00 0.00 0.00 80 1008.9
20260506155649 66 129 0.0 0.0 0.00 0.00 0.00 81 1009.1
20260506155146 66 126 0.0 0.0 0.00 0.00 0.00 81 1009.0
20260506153248 67 114 0.0 1.0 0.00 0.00 0.00 76 1009.4
20260506152745 67 118 0.0 0.0 0.00 0.00 0.00 76 1009.3
20260506152242 67 127 0.0 0.0 0.00 0.00 0.00 75 1009.3
20260506151741 68 154 0.0 0.0 0.00 0.00 0.00 74 1009.5
20260506151237 68 157 0.0 1.0 0.00 0.00 0.00 74 1009.6
20260506150734 68 113 0.0 0.0 0.00 0.00 0.00 73 1009.4
20260506150231 68 109 0.0 0.0 0.00 0.00 0.00 73 1009.3
20260506145728 69 137 0.0 1.0 0.00 0.00 0.00 73 1009.6
20260506145224 69 169 2.0 3.0 0.00 0.00 0.00 73 1009.4
20260506144722 68 131 0.0 0.0 0.00 0.00 0.00 74 1009.3
20260506144219 68 133 0.0 0.0 0.00 0.00 0.00 74 1009.3
20260506143716 68 130 0.0 1.0 0.00 0.00 0.00 74 1009.5
20260506143214 68 122 1.0 1.0 0.00 0.00 0.00 74 1009.2
20260506142712 68 133 0.0 0.0 0.00 0.00 0.00 75 1009.3
20260506142210 68 137 1.0 2.0 0.00 0.00 0.00 74 1009.5
20260506141708 67 166 3.0 3.0 0.00 0.00 0.00 75 1009.5
20260506141206 67 158 1.0 2.0 0.00 0.00 0.00 76 1009.6
20260506140703 67 123 0.0 0.0 0.00 0.00 0.00 76 1009.4